N520YK KBHM-KHSV

Flight info

Callsign N520YK
Flight time 0h 36m
Altitude 9000
Route BOSAC
Aircraft BE20/L-SBGRY/S

Departure

Time 2026-04-24 07:48
Airport Birmingham-Shuttlesworth International Airport (KBHM)

Arrival

Time 2026-04-24 08:24
Airport Huntsville International Airport (KHSV)
Time Latitude Longitude Altitude Speed Heading
2026-04-24 07:25 33.56698 -86.74192 648 ft 0 kts 352°
2026-04-24 07:25 33.56699 -86.74192 648 ft 0 kts 352°
2026-04-24 07:28 33.56700 -86.74192 648 ft 0 kts 352°
2026-04-24 07:31 33.56701 -86.74192 648 ft 0 kts 352°
2026-04-24 07:35 33.56702 -86.74192 648 ft 0 kts 352°
2026-04-24 07:38 33.56703 -86.74193 648 ft 0 kts 352°
2026-04-24 07:38 33.56711 -86.74195 648 ft 3 kts 338°
2026-04-24 07:38 33.56728 -86.74225 648 ft 9 kts 277°
2026-04-24 07:39 33.56698 -86.74324 648 ft 16 kts 236°
2026-04-24 07:39 33.56647 -86.74439 648 ft 17 kts 244°
2026-04-24 07:39 33.56651 -86.74555 648 ft 8 kts 291°
2026-04-24 07:39 33.56656 -86.74570 648 ft 3 kts 298°
2026-04-24 07:40 33.56665 -86.74587 648 ft 3 kts 301°
2026-04-24 07:40 33.56674 -86.74644 648 ft 11 kts 287°
2026-04-24 07:40 33.56758 -86.74686 648 ft 18 kts 308°
2026-04-24 07:40 33.56814 -86.74817 648 ft 19 kts 309°
2026-04-24 07:41 33.56942 -86.74877 648 ft 24 kts 28°
2026-04-24 07:41 33.57097 -86.74850 648 ft 20 kts
2026-04-24 07:41 33.57188 -86.74844 648 ft 10 kts
2026-04-24 07:41 33.57226 -86.74844 648 ft 6 kts 359°
2026-04-24 07:42 33.57253 -86.74844 648 ft 3 kts 359°
2026-04-24 07:42 33.57276 -86.74840 648 ft 3 kts 37°
2026-04-24 07:42 33.57282 -86.74829 648 ft 1 kts 67°
2026-04-24 07:42 33.57287 -86.74816 648 ft 3 kts 67°
2026-04-24 07:43 33.57301 -86.74771 648 ft 8 kts 68°
2026-04-24 07:43 33.57259 -86.74711 648 ft 15 kts 181°
2026-04-24 07:43 33.57229 -86.74713 648 ft 0 kts 181°
2026-04-24 07:44 33.57228 -86.74713 648 ft 0 kts 181°
2026-04-24 07:46 33.57227 -86.74713 648 ft 0 kts 181°
2026-04-24 07:46 33.57187 -86.74713 648 ft 17 kts 179°
2026-04-24 07:47 33.56908 -86.74718 648 ft 62 kts 182°
2026-04-24 07:47 33.56360 -86.74726 649 ft 97 kts 181°
2026-04-24 07:47 33.55647 -86.74695 824 ft 108 kts 178°
2026-04-24 07:47 33.54858 -86.74536 952 ft 120 kts 171°
2026-04-24 07:48 33.54055 -86.74492 1271 ft 109 kts 181°
2026-04-24 07:48 33.53325 -86.74483 1619 ft 101 kts 185°
2026-04-24 07:48 33.52714 -86.74808 1957 ft 95 kts 219°
2026-04-24 07:48 33.52410 -86.75456 2315 ft 89 kts 251°
2026-04-24 07:49 33.52459 -86.76173 2644 ft 87 kts 279°
2026-04-24 07:49 33.52772 -86.76762 2874 ft 84 kts 298°
2026-04-24 07:49 33.53022 -86.77410 3106 ft 75 kts 248°
2026-04-24 07:49 33.52848 -86.77801 3198 ft 89 kts 208°
2026-04-24 07:50 33.52416 -86.78209 3824 ft 80 kts 218°
2026-04-24 07:50 33.52108 -86.78837 4273 ft 97 kts 240°
2026-04-24 07:50 33.52026 -86.79738 4725 ft 123 kts 268°
2026-04-24 07:50 33.52366 -86.80791 5159 ft 151 kts 300°
2026-04-24 07:51 33.53236 -86.81631 5559 ft 173 kts 335°
2026-04-24 07:51 33.54457 -86.81811 5931 ft 184 kts 11°
2026-04-24 07:51 33.55626 -86.81168 6301 ft 188 kts 43°
2026-04-24 07:51 33.56524 -86.80025 6678 ft 192 kts 48°
2026-04-24 07:52 33.57701 -86.79214 7038 ft 200 kts 20°
2026-04-24 07:52 33.59061 -86.78782 7398 ft 204 kts 13°
2026-04-24 07:52 33.60460 -86.78443 7750 ft 207 kts 12°
2026-04-24 07:52 33.61883 -86.78130 8102 ft 209 kts 11°
2026-04-24 07:53 33.63320 -86.77823 8456 ft 210 kts 11°
2026-04-24 07:53 33.64767 -86.77512 8795 ft 213 kts 11°
2026-04-24 07:53 33.66258 -86.77190 8939 ft 223 kts 11°
2026-04-24 07:53 33.67825 -86.76887 8992 ft 233 kts
2026-04-24 07:54 33.69441 -86.76747 8999 ft 240 kts 357°
2026-04-24 07:54 33.71114 -86.76985 9003 ft 243 kts 350°
2026-04-24 07:54 33.72790 -86.77345 8998 ft 246 kts 349°
2026-04-24 07:54 33.74483 -86.77701 9000 ft 248 kts 350°
2026-04-24 07:55 33.76193 -86.78052 8997 ft 249 kts 349°
2026-04-24 07:55 33.77902 -86.78410 8997 ft 250 kts 349°
2026-04-24 07:55 33.79618 -86.78721 8999 ft 250 kts 352°
2026-04-24 07:55 33.81349 -86.78949 8994 ft 250 kts 354°
2026-04-24 07:56 33.83081 -86.79095 8995 ft 250 kts 357°
2026-04-24 07:56 33.84821 -86.79215 8996 ft 250 kts 356°
2026-04-24 07:56 33.86554 -86.79333 8993 ft 250 kts 356°
2026-04-24 07:56 33.88294 -86.79454 8994 ft 250 kts 356°
2026-04-24 07:57 33.90006 -86.79569 8992 ft 250 kts 356°
2026-04-24 07:57 33.91748 -86.79677 8990 ft 250 kts 358°
2026-04-24 07:57 33.93487 -86.79790 8988 ft 250 kts 357°
2026-04-24 07:57 33.95221 -86.79634 8983 ft 249 kts 17°
2026-04-24 07:58 33.96813 -86.78821 8994 ft 248 kts 27°
2026-04-24 07:58 33.98403 -86.78017 8987 ft 249 kts 20°
2026-04-24 07:58 34.00080 -86.77497 8986 ft 250 kts 11°
2026-04-24 07:58 34.01807 -86.77254 8986 ft 250 kts
2026-04-24 07:59 34.03554 -86.77191 8986 ft 251 kts 360°
2026-04-24 07:59 34.05301 -86.77216 8985 ft 251 kts 358°
2026-04-24 07:59 34.07026 -86.77280 8982 ft 251 kts 357°
2026-04-24 07:59 34.08771 -86.77358 8983 ft 251 kts 357°
2026-04-24 08:00 34.10513 -86.77431 8982 ft 251 kts 357°
2026-04-24 08:00 34.12261 -86.77499 8982 ft 251 kts 357°
2026-04-24 08:00 34.14010 -86.77581 8982 ft 251 kts 357°
2026-04-24 08:00 34.15758 -86.77662 8982 ft 251 kts 357°
2026-04-24 08:01 34.17507 -86.77737 8981 ft 251 kts 357°
2026-04-24 08:01 34.19255 -86.77810 8984 ft 251 kts 357°
2026-04-24 08:01 34.20997 -86.77878 8981 ft 251 kts 357°
2026-04-24 08:01 34.22750 -86.77950 8926 ft 253 kts 357°
2026-04-24 08:02 34.24539 -86.78026 8701 ft 260 kts 357°
2026-04-24 08:02 34.26294 -86.78099 8474 ft 249 kts 357°
2026-04-24 08:02 34.28010 -86.78174 8250 ft 246 kts 357°
2026-04-24 08:02 34.29720 -86.78242 8026 ft 246 kts 358°
2026-04-24 08:03 34.31433 -86.78315 7801 ft 245 kts 357°
2026-04-24 08:03 34.33134 -86.78382 7575 ft 245 kts 358°
2026-04-24 08:03 34.34840 -86.78443 7347 ft 245 kts 358°
2026-04-24 08:03 34.36541 -86.78518 7123 ft 244 kts 357°
2026-04-24 08:04 34.38238 -86.78595 6898 ft 244 kts 357°
2026-04-24 08:04 34.39931 -86.78665 6673 ft 243 kts 357°
2026-04-24 08:04 34.41620 -86.78717 6453 ft 243 kts 359°
2026-04-24 08:04 34.43313 -86.78689 6230 ft 243 kts
2026-04-24 08:05 34.45005 -86.78637 6003 ft 243 kts
2026-04-24 08:05 34.46692 -86.78585 5778 ft 242 kts
2026-04-24 08:05 34.48380 -86.78535 5558 ft 242 kts
2026-04-24 08:05 34.50062 -86.78489 5331 ft 242 kts
2026-04-24 08:06 34.51746 -86.78462 5131 ft 240 kts 360°
2026-04-24 08:06 34.53402 -86.78438 5022 ft 236 kts 360°
2026-04-24 08:06 34.54999 -86.78411 4991 ft 231 kts
2026-04-24 08:06 34.56605 -86.78379 4984 ft 229 kts 360°
2026-04-24 08:07 34.58200 -86.78351 4985 ft 230 kts
2026-04-24 08:07 34.59798 -86.78315 4981 ft 230 kts 360°
2026-04-24 08:07 34.61398 -86.78278 4986 ft 230 kts
2026-04-24 08:07 34.63003 -86.78243 4983 ft 231 kts
2026-04-24 08:08 34.64615 -86.78211 4979 ft 231 kts 359°
2026-04-24 08:08 34.66226 -86.78186 4977 ft 232 kts
2026-04-24 08:08 34.67839 -86.78168 4981 ft 231 kts 360°
2026-04-24 08:09 34.71056 -86.78104 4985 ft 231 kts
2026-04-24 08:09 34.72647 -86.78068 4984 ft 231 kts
2026-04-24 08:09 34.74254 -86.78034 4986 ft 231 kts
2026-04-24 08:09 34.75863 -86.77997 4983 ft 231 kts
2026-04-24 08:10 34.77475 -86.77964 4986 ft 231 kts
2026-04-24 08:10 34.79083 -86.77924 4987 ft 231 kts
2026-04-24 08:10 34.80691 -86.77889 4984 ft 231 kts 360°
2026-04-24 08:10 34.82298 -86.77869 4985 ft 231 kts 360°
2026-04-24 08:11 34.83902 -86.77842 4986 ft 230 kts 360°
2026-04-24 08:11 34.85510 -86.77811 4985 ft 231 kts 360°
2026-04-24 08:11 34.87116 -86.77800 4987 ft 231 kts 357°
2026-04-24 08:11 34.88738 -86.77873 4653 ft 241 kts 356°
2026-04-24 08:12 34.90412 -86.77974 4228 ft 240 kts 356°
2026-04-24 08:12 34.92072 -86.78085 3804 ft 238 kts 355°
2026-04-24 08:12 34.93732 -86.78187 3379 ft 237 kts 355°
2026-04-24 08:12 34.95364 -86.78292 3099 ft 230 kts 355°
2026-04-24 08:13 34.96926 -86.78386 3009 ft 219 kts 355°
2026-04-24 08:13 34.98420 -86.78464 2984 ft 211 kts 356°
2026-04-24 08:13 34.99846 -86.78541 2978 ft 205 kts 356°
2026-04-24 08:13 35.01243 -86.78221 2973 ft 202 kts 27°
2026-04-24 08:14 35.02306 -86.77170 2984 ft 195 kts 58°
2026-04-24 08:14 35.02749 -86.75693 2984 ft 185 kts 91°
2026-04-24 08:14 35.02457 -86.74242 2986 ft 173 kts 128°
2026-04-24 08:14 35.01564 -86.73353 2985 ft 164 kts 163°
2026-04-24 08:15 35.00459 -86.73324 2992 ft 160 kts 195°
2026-04-24 08:15 34.99426 -86.73835 2993 ft 162 kts 205°
2026-04-24 08:15 34.98428 -86.74474 2987 ft 162 kts 207°
2026-04-24 08:15 34.97433 -86.75135 2982 ft 163 kts 207°
2026-04-24 08:16 34.96442 -86.75800 2984 ft 163 kts 207°
2026-04-24 08:16 34.95458 -86.76461 2984 ft 163 kts 207°
2026-04-24 08:16 34.94443 -86.77083 2982 ft 163 kts 200°
2026-04-24 08:16 34.93353 -86.77457 2986 ft 163 kts 194°
2026-04-24 08:17 34.92248 -86.77773 2981 ft 163 kts 191°
2026-04-24 08:17 34.91126 -86.77948 2988 ft 163 kts 185°
2026-04-24 08:17 34.89991 -86.77983 2986 ft 163 kts 181°
2026-04-24 08:17 34.88850 -86.77955 2985 ft 164 kts 179°
2026-04-24 08:18 34.87712 -86.77901 2983 ft 163 kts 179°
2026-04-24 08:18 34.86571 -86.77841 2983 ft 164 kts 179°
2026-04-24 08:18 34.85451 -86.77774 2986 ft 164 kts 179°
2026-04-24 08:18 34.84296 -86.77757 2845 ft 170 kts 181°
2026-04-24 08:19 34.83087 -86.77794 2624 ft 177 kts 183°
2026-04-24 08:19 34.81840 -86.77838 2400 ft 181 kts 182°
2026-04-24 08:19 34.80564 -86.77857 2177 ft 185 kts 183°
2026-04-24 08:19 34.79279 -86.77855 2043 ft 184 kts 182°
2026-04-24 08:20 34.78018 -86.77869 2008 ft 175 kts 185°
2026-04-24 08:20 34.76923 -86.77901 2015 ft 146 kts 187°
2026-04-24 08:20 34.75920 -86.77939 1983 ft 146 kts 185°
2026-04-24 08:20 34.74892 -86.78041 1993 ft 149 kts 185°
2026-04-24 08:21 34.73850 -86.78141 1989 ft 151 kts 183°
2026-04-24 08:21 34.72806 -86.78168 1987 ft 151 kts 180°
2026-04-24 08:21 34.71754 -86.78135 2011 ft 148 kts 178°
2026-04-24 08:21 34.70903 -86.78105 2070 ft 105 kts 180°
2026-04-24 08:22 34.70208 -86.78095 1952 ft 94 kts 178°
2026-04-24 08:22 34.69579 -86.78132 1724 ft 92 kts 186°
2026-04-24 08:22 34.69018 -86.78173 1610 ft 73 kts 181°
2026-04-24 08:22 34.68482 -86.78162 1395 ft 72 kts 173°
2026-04-24 08:23 34.67928 -86.78153 1169 ft 81 kts 183°
2026-04-24 08:23 34.67402 -86.78165 1022 ft 73 kts 180°
2026-04-24 08:23 34.66849 -86.78177 880 ft 84 kts 181°
2026-04-24 08:23 34.66298 -86.78200 832 ft 77 kts 181°
2026-04-24 08:24 34.65746 -86.78198 712 ft 77 kts 180°
2026-04-24 08:24 34.65228 -86.78212 651 ft 74 kts 180°
2026-04-24 08:24 34.64745 -86.78216 634 ft 58 kts 185°
2026-04-24 08:24 34.64533 -86.78221 633 ft 20 kts 179°
2026-04-24 08:25 34.64401 -86.78218 633 ft 18 kts 179°
2026-04-24 08:25 34.64287 -86.78217 633 ft 14 kts 180°
2026-04-24 08:25 34.64222 -86.78211 633 ft 5 kts 133°
2026-04-24 08:25 34.64218 -86.78124 633 ft 16 kts 94°
2026-04-24 08:26 34.64216 -86.78012 633 ft 6 kts 81°
2026-04-24 08:26 34.64256 -86.77984 633 ft 9 kts
2026-04-24 08:26 34.64331 -86.77979 633 ft 10 kts 12°
2026-04-24 08:26 34.64389 -86.77947 633 ft 10 kts 36°
2026-04-24 08:27 34.64450 -86.77887 633 ft 12 kts 40°
2026-04-24 08:27 34.64480 -86.77854 633 ft 7 kts 55°
2026-04-24 08:27 34.64490 -86.77772 633 ft 15 kts 91°
2026-04-24 08:27 34.64487 -86.77623 633 ft 19 kts 89°
2026-04-24 08:28 34.64484 -86.77475 633 ft 16 kts 95°
2026-04-24 08:28 34.64483 -86.77377 633 ft 11 kts 92°
2026-04-24 08:28 34.64481 -86.77261 633 ft 14 kts 90°
2026-04-24 08:28 34.64477 -86.77149 633 ft 15 kts 92°
2026-04-24 08:29 34.64476 -86.76996 633 ft 21 kts 91°
2026-04-24 08:29 34.64474 -86.76847 633 ft 14 kts 92°
2026-04-24 08:29 34.64503 -86.76776 633 ft 11 kts 326°
2026-04-24 08:29 34.64576 -86.76813 633 ft 12 kts 333°
2026-04-24 08:30 34.64661 -86.76854 633 ft 14 kts 349°
2026-04-24 08:30 34.64768 -86.76862 633 ft 17 kts 354°
2026-04-24 08:30 34.64903 -86.76890 633 ft 24 kts 347°
2026-04-24 08:30 34.64958 -86.77000 633 ft 7 kts 240°